This is the latest recevied weather packets stored in our database for station/object OH2HCY-3. If no packets are shown the sender has not sent any weather packets the latest 10 day(s).
| Time | Temp. | Humidity | Pressure | Rain* | Wind** | Luminosity | Snow |
|---|---|---|---|---|---|---|---|
| 1788346928 | 17.78° C | 65% | 1008.6 hPa | - | - | - | - |
| 1788344763 | 17.22° C | 66% | 1008.6 hPa | - | - | - | - |
| 1788343614 | 17.78° C | 64% | 1008.5 hPa | - | - | - | - |
| 1788342543 | 17.22° C | 64% | 1008.4 hPa | - | - | - | - |
| 1788341429 | 17.78° C | 60% | 1008.4 hPa | - | - | - | - |
| 1788340228 | 17.22° C | 58% | 1008.4 hPa | - | - | - | - |
| 1788339078 | 16.67° C | 63% | 1008.5 hPa | - | - | - | - |
| 1788337888 | 16.11° C | 62% | 1008.5 hPa | - | - | - | - |
| 1788336802 | 16.11° C | 65% | 1008.5 hPa | - | - | - | - |
| 1788336799 | 16.11° C | 65% | 1008.5 hPa | - | - | - | - |
| 1788335753 | 16.11° C | 63% | 1008.3 hPa | - | - | - | - |
| 1788334738 | 15.56° C | 66% | 1008.3 hPa | - | - | - | - |
| 1788333603 | 14.44° C | 71% | 1008.3 hPa | - | - | - | - |
| 1788332463 | 13.89° C | 74% | 1008.2 hPa | - | - | - | - |
| 1788331433 | 13.33° C | 78% | 1008 hPa | - | - | - | - |
| 1788330388 | 12.78° C | 81% | 1008 hPa | - | - | - | - |
| 1788329388 | 12.22° C | 85% | 1008 hPa | - | - | - | - |
| 1788328316 | 11.67° C | 87% | 1007.9 hPa | - | - | - | - |
| 1788328313 | 11.67° C | 87% | 1007.9 hPa | - | - | - | - |
| 1788327206 | 11.67° C | 87% | 1007.9 hPa | - | - | - | - |
| 1788326098 | 11.67° C | 89% | 1007.9 hPa | - | - | - | - |
| 1788301062 | 14.44° C | 91% | 1007.7 hPa | - | - | - | - |
| 1788297938 | 15° C | 91% | 1007.8 hPa | - | - | - | - |
| 1788295758 | 14.44° C | 91% | 1007.8 hPa | - | - | - | - |
| 1788294773 | 14.44° C | 91% | 1007.7 hPa | - | - | - | - |
* Rain since midnight (hover to see other rain measurements)
** Current wind speed in m/s (hover to see current wind gust speed)